Regional Weather Roundup
Issued by NWS

Home | Current Version | Previous Version | Text Only | Print | Product List | Glossary On
Versions: 1 2 3 4 5 6 7 8 9 10 11 12 13 14 15 16 17 18 19 20 21 22 23 24 25 26 27 28 29 30 31 32 33 34 35 36 37 38 39 40 41 42 43 44 45 46 47 48 49 50
000
ASUS43 KMKX 270000
RWRWI

WISCONSIN REGIONAL WEATHER ROUNDUP
NATIONAL WEATHER SERVICE MILWAUKEE/SULLIVAN WI
600 PM CST WED NOV 26 2014

NOTE: "FAIR" INDICATES FEW OR NO CLOUDS BELOW 12,000 FEET WITH NO
SIGNIFICANT WEATHER AND/OR OBSTRUCTIONS TO VISIBILITY.

WIZ001-002-006>008-014>016-023>028-270100-
NORTHWEST WISCONSIN

CITY           SKY/WX    TMP DP  RH WIND       PRES   REMARKS
SUPERIOR ARPT  CLOUDY    16   6  65 N10       30.32R WCI   4
ASHLAND        CLOUDY    20  14  77 NW8       30.27R WCI  10
6HR MIN TEMP:  19; 6HR MAX TEMP:  25; 6HR PCP: TRACE;

HAYWARD        CLOUDY    19  13  77 VRB5      30.25R WCI  12
6HR MIN TEMP:  19; 6HR MAX TEMP:  24; 6HR PCP: TRACE;

SIREN          CLOUDY    21  11  65 N7        30.28R WCI  13
CUMBERLAND     MOCLDY    21  18  86 NW7       30.23R WCI  13
RICE LAKE      MOCLDY    22  18  81 N5        30.23S WCI  16
CHETEK         MOCLDY    22  18  84 N5        30.22S WCI  16
LADYSMITH      LGT SNOW  24  21  87 NW12      30.21R WCI  13
EAU CLAIRE     NOT AVBL
MENOMONIE      CLOUDY    26  18  73 NW12      30.24R WCI  15
NEW RICHMOND   PTCLDY    19  14  82 N7        30.26R WCI   9
OSCEOLA        CLOUDY    24  16  73 NW8       30.30R WCI  15
$$

WIZ003>005-009-010-017-018-270100-
NORTH CENTRAL WISCONSIN

CITY           SKY/WX    TMP DP  RH WIND       PRES   REMARKS
MANITOWISH WTR LGT SNOW  21  19  90 N10G16    30.15R WCI  10
ARBOR VITAE    LGT SNOW  23  20  89 NW7       30.14R WCI  15
WOODRUFF       LGT SNOW  23  20  89 NW7       30.14R WCI  15
RHINELANDER    LGT SNOW  20  17  88 NW5       30.14R FOG     WCI  13
6HR MIN TEMP:  19; 6HR MAX TEMP:  23; 6HR PCP: TRACE;

EAGLE RIVER    CLOUDY    21  17  84 NW5       30.13R WCI  15
LAND O LAKES   FLURRIES  22  19  89 N6        30.14R WCI  14
PHILLIPS       FLURRIES  21  19  89 CALM      30.16S
TOMAHAWK       CLOUDY    21  19  92 CALM      30.16R
MEDFORD        LGT SNOW  22  19  91 NW5       30.16R WCI  15
MERRILL        LGT SNOW  23  21  93 CALM      30.15S
$$

WIZ029-030-035-036-043>047-270100-
CENTRAL WISCONSIN

CITY           SKY/WX    TMP DP  RH WIND       PRES   REMARKS
WAUSAU         LGT SNOW  24  21  88 NW5       30.15R FOG     WCI  18
6HR MIN TEMP:  22; 6HR MAX TEMP:  25; 6HR PCP: TRACE;

MOSINEE        LGT SNOW  23  23 100 NW7       30.16S WCI  15
MARSHFIELD     LGT SNOW  24  20  84 N8        30.16S FOG     WCI  15
6HR MIN TEMP:  22; 6HR MAX TEMP:  26; 6HR PCP: TRACE;

STEVENS POINT  CLOUDY    20  19  94 CALM      30.17R
WAUPACA        MOCLDY    19  16  89 CALM      30.18S FOG
WAUTOMA        NOT AVBL
WISC RAPIDS    CLOUDY    23  17  78 NW5       30.19R WCI  17
6HR MIN TEMP:  21; 6HR MAX TEMP:  26;

CAMP DOUGLAS   NOT AVBL
$$

WIZ011>013-019>022-031-037>040-048>050-270100-
NORTHEAST WISCONSIN

CITY           SKY/WX    TMP DP  RH WIND       PRES   REMARKS
ANTIGO         CLOUDY    21  18  88 NW5       30.13S WCI  15
SHAWANO        CLOUDY    23  19  84 CALM      30.17F
OCONTO         CLOUDY    20  18  91 NW3       30.17S
STURGEON BAY   MOCLDY    23  16  74 NW7       30.16S WCI  15
6HR MIN TEMP:  21; 6HR MAX TEMP:  27;

GREEN BAY      MOCLDY    19  16  88 CALM      30.18S FOG
6HR MIN TEMP:  19; 6HR MAX TEMP:  26;

MANITOWOC      NOT AVBL
APPLETON       NOT AVBL
CLINTONVILLE   PTCLDY    18  14  86 CALM      30.17S FOG
OSHKOSH        CLOUDY    22  17  81 MISG      30.17S
6HR MIN TEMP:  21; 6HR MAX TEMP:  23;

$$

WIZ032>034-041-042-053>061-270100-
SOUTHWEST WISCONSIN

CITY           SKY/WX    TMP DP  RH WIND       PRES   REMARKS
LA CROSSE      LGT SNOW  26  23  88 N10       30.23R FOG     WCI  16
6HR MIN TEMP:  26; 6HR MAX TEMP:  29; 6HR PCP:  0.01;

SPARTA         FLURRIES  26  21  83 N10       30.21R WCI  16
VIROQUA        CLOUDY    24  19  83 CALM      30.17R
BOSCOBEL       MOCLDY    21  17  84 CALM      30.22R FOG
6HR MIN TEMP:  21; 6HR MAX TEMP:  25;

PRAIRIE DU CHI CLOUDY    26  20  79 CALM      30.21R
PLATTEVILLE    CLOUDY    23  20  88 N9        30.17R WCI  13
$$

WIZ056-057-062-063-064-067-068-270100-
SOUTH CENTRAL WISCONSIN

CITY           SKY/WX    TMP DP  RH WIND       PRES   REMARKS
REEDSBURG      PTCLDY    19  17  91 CALM      30.18R
BARABOO/DELLS  PTCLDY    16  15  93 CALM      30.18R FOG
LONE ROCK      NOT AVBL
MINERAL POINT  MOCLDY    23  21  93 N3        30.16R FOG
MADISON        MOCLDY    19  15  84 CALM      30.18R
6HR MIN TEMP:  19; 6HR MAX TEMP:  24;

MIDDLETON      MOCLDY    22  18  86 CALM      30.17S
WATERTOWN      CLOUDY    22  20  93 NW6       30.16R WCI  14
MONROE         CLOUDY    23  21  93 N12       30.14R WCI  12
JANESVILLE     CLOUDY    23  21  93 N8        30.14S FOG     WCI  14
$$

WIZ051-052-058>065-066-070>072-270100-
SOUTHEAST WISCONSIN

CITY           SKY/WX    TMP DP  RH WIND       PRES   REMARKS
MILWAUKEE      CLOUDY    30  20  66 N10       30.14R WCI  21
6HR MIN TEMP:  27; 6HR MAX TEMP:  31;

WAUKESHA       CLOUDY    21  19  93 NW9       30.16R FOG     WCI  11
MILWAUKEE/TIMM NOT AVBL
RACINE         CLOUDY    29  23  78 NW6       30.15S WCI  23
6HR MIN TEMP:  27; 6HR MAX TEMP:  29;

BURLINGTON     CLOUDY    24  21  91 NW8       30.14S WCI  14
KENOSHA        CLOUDY    28  24  85 N8        30.13S WCI  20
6HR MIN TEMP:  25; 6HR MAX TEMP:  29;

FOND DU LAC    MOCLDY    21  16  81 NW7       30.17S WCI  12
6HR MIN TEMP:  20; 6HR MAX TEMP:  24; 6HR PCP: TRACE;

SHEBOYGAN      MOCLDY    20  17  88 NW5       30.16S WCI  13
6HR MIN TEMP:  20; 6HR MAX TEMP:  26;

WEST BEND      CLOUDY    25  19  80 NW5       30.16R WCI  19
JUNEAU         CLOUDY    22  18  87 CALM      30.17S
$$

LSZ147-162-270100-
LAKE SUPERIOR

STATION/POSITION TIME  TEMP    WIND        PRES    WAVE
                       AIR SEA DIR/SP/G            HT/PER
                 (UTC) (F)     (DEG/KT/KT) (MB)    (FT/S)
DEVILS ISLAND    2300   21     350/ 17/ 20 1026.2R
PORT WING        2340   21     330/ 15/ 19 1026.1R
SAXON HARBOR     2300   25     330/  9/ 15 1024.0R
$$

LMZ867-665-643>646-270100-
LAKE MICHIGAN

STATION/POSITION TIME  TEMP    WIND        PRES    WAVE
                       AIR SEA DIR/SP/G            HT/PER
                 (UTC) (F)     (DEG/KT/KT) (MB)    (FT/S)
CHAMBERS ISLAND  2300   24     300/  3/  6 1021.7S
N MID LAKE BUOY  2250   30 42  260/  8/ 12 1022.1F   1
NORTHPORT PIER   2300   25     300/  4/  8 1021.7S
SISTER BAY       2313          320/  2/  3   N/A
ALGOMA LAKESHORE 2258          340/  7/ 10   N/A
KEWAUNEE LAKESHO 2318   22     300/  1/  3 1020.7R
SHEBOYGAN LAKESH 2300   25 36  330/ 12/ 13 1022.7R
PORT WASHINGTON  2300   27     350/  6/ 10 1022.0R
MILWAUKEE LAKESH 2300   30     340/  7/  9   N/A
S MID LAKE BUOY  2250   32 42  100/  4/  6 1021.0F   1/ 3
KENOSHA   LAKESH 2300   29     310/  6/  9 1020.3S
$$

TC  - TEMPERATURE IN CELSIUS
VSB - VISIBILITY IN STATUTE MILES
WCI - WIND CHILL INDEX
HX  - HEAT INDEX



USA.gov is the U.S. government's official web portal to all federal, state and local government web resources and services.